Regional Weather Roundup
Issued by NWS

Home | Current Version | Previous Version | Graphics & Text | Print | Product List | Glossary On
Versions: 1 2 3 4 5 6 7 8 9 10 11 12 13 14 15 16 17 18 19 20 21 22 23 24 25 26 27 28 29 30 31 32 33 34 35 36 37 38 39 40 41 42 43 44 45 46 47 48 49 50
000
ASUS44 KMEG 231000
RWRTN
TENNESSEE HOURLY STATE WEATHER ROUNDUP
NATIONAL WEATHER SERVICE MEMPHIS TN
500 AM CDT TUE SEP 23 2014

TNZ002-004-019-021-049-052-054-088>092-231100-
WEST TENNESSEE

CITY           SKY/WX    TMP DP  RH WIND       PRES   REMARKS
MEMPHIS INTL   CLEAR     58  47  66 NE5       30.22R
NWS MEMPHIS      N/A     56 N/A N/A MISG        N/A
JACKSON        CLEAR     48  45  89 CALM      30.23R
DYERSBURG      CLEAR     52  39  62 E3        30.25S
UNION CITY     CLEAR     46  45  93 CALM      30.23S
PARIS          CLEAR     45  43  93 N5        30.24S
SAVANNAH       CLEAR     43  43 100 CALM      30.21S
$$

TNZ008-025-027-028-033-062-065-066-231100-
NORTH MIDDLE TENNESSEE

CITY           SKY/WX    TMP DP  RH WIND       PRES   REMARKS
NASHVILLE      CLEAR     52  46  80 NE5       30.24R
CLARKSVILLE    CLEAR     47  43  86 CALM      30.25S
COOKEVILLE     CLEAR     41  39  93 CALM      30.22S
CROSSVILLE     CLEAR     48  44  86 N3        30.24S
$$

TNZ061-075-076-078-094-096-097-231100-
SOUTH MIDDLE TENNESSEE

CITY           SKY/WX    TMP DP  RH WIND       PRES   REMARKS
SHELBYVILLE    CLEAR     46  45  93 N6        30.22S
$$

TNZ017-018-042-046-047-231100-
NORTHEAST TENNESSEE

CITY           SKY/WX    TMP DP  RH WIND       PRES   REMARKS
TRI CITIES     CLEAR     44  42  93 CALM      30.25S
ELIZABETHTON   SUNNY     43  43 100 E5        30.25F
$$

TNZ012-013-036-069-073-074-231100-
CENTRAL EAST TENNESSEE

CITY           SKY/WX    TMP DP  RH WIND       PRES   REMARKS
KNOXVILLE      CLEAR     52  48  86 N7        30.22R
OAK RIDGE      CLEAR     51  48  89 E3        30.25R
$$

TNZ083-085-099-231100-
SOUTHEAST TENNESSEE

CITY           SKY/WX    TMP DP  RH WIND       PRES   REMARKS
CHATTANOOGA    PTCLDY    59  49  69 NE9       30.20R
$$

SKY/WX REPORTED AS FAIR MEANS FEW OR NO CLOUDS BELOW
12 THOUSAND FEET.




USA.gov is the U.S. government's official web portal to all federal, state and local government web resources and services.